Regional Weather Roundup
Issued by NWS Goodland, KS

Home | Current Version | Previous Version | Graphics & Text | Print | Product List | Glossary On
Versions: 1 2 3 4 5 6 7 8 9 10 11 12 13 14 15 16 17 18 19 20 21 22 23 24 25 26 27 28 29 30 31 32 33 34 35 36 37 38 39 40 41 42 43 44 45 46 47 48 49 50
000
ASUS43 KGLD 101808
RWRGLD

GOODLAND FORECAST AREA HOURLY WEATHER ROUNDUP
NATIONAL WEATHER SERVICE GOODLAND KS
1200 PM MDT THU JUL 10 2014

...OFFICIAL OBSERVATIONS...

CITY           SKY/WX    TMP DP  RH WIND       PRES   REMARKS
GOODLAND KS    SUNNY     81  65  58 S16       30.00F
HILL CITY KS   SUNNY     85  65  51 S15G22    29.98F
IMPERIAL NEB   SUNNY     84  61  45 S12       29.97F
MCCOOK NEB       N/A     84  67  56 S16       29.95F
AKRON CO       SUNNY     86  56  35 S13G25    30.03F
BURLINGTON CO  SUNNY     82  61  48 S15G21    30.02F
LIMON CO       SUNNY     85  51  31 S10G16    30.08F
$$

...UNOFFICIAL OBSERVATIONS...

CITY           SKY/WX    TMP DP  RH WIND       PRES   REMARKS
COLBY KS       SUNNY     84  68  58 SE15      29.99F
GOVE KS          N/A     82  32  16 CALM        N/A
LENORA KS        N/A     82  32  16 MISG        N/A
NORTON KS      SUNNY     88  59  37 S16G24    29.97S
OBERLIN KS     FAIR      86  61  42 S14G21    29.96
SHARON SPRINGS   N/A     85  66  52 S14G22      N/A
ST FRANCIS KS  SUNNY     86  57  37 S12G18    29.97F
TRIBUNE KS     SUNNY     86 N/A N/A SE15G22   30.00
WRAY CO        FAIR      90  55  31 S10G16    29.98F
YUMA CO          N/A     84  61  45 S5G13       N/A
$$



USA.gov is the U.S. government's official web portal to all federal, state and local government web resources and services.